Location: Fauquembergues
(50.6005°N, 2.0987°E)
Time: 00:28:47
(UTC+00:00)

Cosmos 1459 Rocket - Pass Details

Date: 14 July 2020
Orbit: 938 x 999 km, 83.0° (Epoch: 03 August)

Event Time Altitude Azimuth Distance (km) Brightness Sun altitude
Exits shadow 00:52:48 20° 161° (SSE) 2,024 5.2 -16.7°
Maximum altitude 00:56:53 54° 92° (E) 1,146 4.4 -16.6°
Drops below altitude 10° 01:02:53 10° 17° (NNE) 2,710 7.7 -16.3°
Sets 01:05:27 0° 13° (NNE) 3,670 8.9 -16.2°
